User: anonymous   Login
Location: Unspecified
(48.7670°N, 0.0000°E)
Time: 03:11:54
(UTC+00:00)
Language:

AO-7 - Orbit

View from above orbital plane
View from above orbital plane
View from above satellite
View from above satellite

Ground track
Ground track

The orbit data is extracted from the following two-line orbital elements,

1  7530U 74089B   19203.85354424 -.00000028  00000-0  10777-3 0  9999
2  7530 101.7459 171.1676 0011748 282.3821 106.6222 12.53638966 44804
Epoch (UTC): 22 July 2019 20:29:06
Eccentricity: 0.0011748
inclination: 101.7459°
perigee height: 1440 km
apogee height: 1458 km
right ascension of ascending node: 171.1676°
argument of perigee: 282.3821°
revolutions per day: 12.53638966
mean anomaly at epoch: 106.6222°
orbit number at epoch: 4480

The dashed part of the orbit path shows where the satellite is in the earth's shadow,  

DLR